Location: Shepherdstown, WV
(39.4326°N, 77.8042°W)
Time: 04:29:14
(UTC-04:00)

SR - Pass Details

Date: 11 August 2021
Orbit: 581 x 874 km, 66.7° (Epoch: 24 September)

Event Time Altitude Azimuth Distance (km) Brightness Sun altitude
Rises 13:34:14 0° 332° (NNW) 3,033 ? 65.3°
Reaches altitude 10° 13:36:38 10° 334° (NNW) 2,070 ? 65.2°
Maximum altitude 13:41:16 74° 60° (ENE) 648 ? 65.0°
Drops below altitude 10° 13:45:35 10° 146° (SE) 1,927 ? 64.8°
Sets 13:47:46 0° 148° (SSE) 2,805 ? 64.7°
